Wind_Speed
35 36 33 32 31 26 21 17 18 18 19 3 12 22 30 34 35 38 33 17 10 11 8 8 8 8 7 8 7 10 14 16 16 16 17 20 20 22 23 23 23 23 23 22 20 21 20 19 19
36 38 37 35 33 28 22 20 12 11 11 8 22 31 35 38 35 36 24 12 10 11 11 11 11 11 10 8 10 11 14 15 14 17 18 21 21 23 24 25 26 25 23 21 19 21 19 17 18
35 40 40 38 36 28 22 23 25 17 15 18 32 34 34 37 36 34 25 15 10 12 12 14 16 14 13 12 10 9 11 15 19 21 21 21 22 25 27 27 26 25 24 22 22 21 19 19 20
30 35 40 39 35 31 22 28 23 16 13 24 32 30 30 37 36 31 24 14 11 16 16 19 21 21 19 15 9 6 10 14 18 21 23 24 24 27 27 25 25 25 24 23 23 22 23 22 21
32 30 37 38 35 32 25 26 24 25 10 27 38 34 33 37 34 32 19 21 23 21 19 21 22 22 18 11 5 7 12 17 20 22 25 26 26 27 26 24 25 26 25 23 23 22 22 22 23
46 40 38 36 37 35 33 34 34 23 8 18 33 24 33 36 31 32 30 27 29 25 24 23 23 24 17 12 11 14 18 21 23 25 27 28 28 26 25 26 28 29 27 25 23 21 21 22 22
36 45 47 44 41 42 36 37 34 29 21 30 23 18 18 30 35 32 33 32 31 30 27 25 27 25 21 16 17 19 19 22 25 26 28 29 28 26 25 27 28 28 28 27 24 21 21 23 23
44 44 46 47 48 37 39 45 39 29 31 36 29 25 17 23 29 29 33 35 34 32 30 28 32 27 23 21 19 20 21 23 26 27 27 28 28 28 27 28 30 30 28 27 25 23 23 25 26
47 53 56 47 44 44 36 41 49 39 36 33 41 29 22 34 37 38 36 40 38 35 35 31 31 27 25 22 21 22 23 23 25 27 27 29 28 28 27 29 32 33 28 28 27 26 26 27 28
46 49 49 42 39 38 37 45 40 49 46 48 39 36 39 36 42 36 43 36 36 39 43 31 31 29 29 24 20 22 22 23 24 27 27 29 30 29 29 29 31 33 29 28 27 28 28 29 31
43 41 44 49 46 41 39 39 49 45 49 48 45 38 36 42 41 40 33 39 36 27 30 33 33 34 32 22 20 23 24 25 26 28 27 30 31 32 33 30 31 33 29 27 28 29 29 30 32
43 42 41 40 54 57 48 45 45 59 52 46 38 46 39 32 45 42 37 38 35 38 39 48 35 36 26 10 24 25 27 27 28 28 28 29 33 34 35 33 31 33 30 28 29 28 30 31 33
43 41 44 43 48 52 55 57 48 45 54 60 46 40 51 49 38 42 46 42 47 45 40 40 33 23 28 31 26 26 28 30 30 30 29 30 33 35 38 35 32 31 30 29 30 29 29 30 31
41 44 44 45 42 47 51 58 66 56 53 51 43 43 51 52 50 44 47 50 50 52 47 45 28 22 34 38 35 29 31 33 31 30 31 31 33 35 37 36 37 30 31 30 30 30 29 28 32
41 43 44 43 43 45 52 54 51 46 62 61 47 44 51 53 55 43 52 53 53 55 62 58 37 42 38 41 44 38 36 37 33 32 33 34 34 35 37 36 37 33 31 30 29 30 30 28 33
45 46 46 40 44 44 48 56 45 44 47 54 63 49 51 57 56 54 52 48 55 59 61 46 35 48 44 45 46 45 41 42 37 36 37 36 35 38 39 37 35 32 31 30 29 31 29 29 31
47 46 48 45 45 47 48 52 44 44 49 51 51 56 59 56 60 61 57 55 59 51 43 50 51 53 55 48 46 44 43 42 40 41 44 42 38 41 42 40 36 31 32 31 31 31 28 29 31
46 48 50 48 48 50 50 54 52 49 51 53 53 55 58 60 64 58 56 58 61 61 57 56 57 63 61 55 50 46 44 42 41 42 45 46 44 43 43 42 38 32 31 30 32 30 27 30 31
48 50 54 53 56 58 61 61 56 57 59 58 55 55 58 59 62 60 59 57 62 64 64 64 69 65 60 58 52 48 42 42 39 46 47 48 47 45 44 43 40 33 30 30 31 28 28 30 33
50 53 54 54 54 57 59 63 59 58 59 60 61 59 58 59 56 60 67 62 61 64 65 66 66 65 60 52 51 47 44 41 44 47 50 49 47 46 47 44 40 34 31 30 30 28 28 31 34
48 50 52 56 56 58 62 63 62 59 59 60 61 61 63 62 59 56 58 59 61 67 69 71 69 69 60 52 49 43 45 47 48 51 52 46 47 47 47 41 38 34 31 30 29 28 30 32 31
50 48 52 56 58 61 55 67 64 60 59 62 63 64 61 60 58 57 57 57 59 61 60 59 60 56 49 44 43 44 47 50 55 56 57 47 47 47 44 39 36 31 29 30 28 30 31 30 30
47 47 53 56 60 62 63 66 64 62 63 65 65 66 65 61 59 58 53 52 53 58 58 56 53 50 44 38 36 45 54 55 54 55 54 48 50 45 41 36 33 30 30 29 29 31 30 30 30
42 39 43 47 47 59 57 58 64 64 61 61 67 69 65 64 60 61 59 53 47 52 54 53 49 49 45 36 32 36 41 48 45 48 45 42 40 38 36 33 31 30 30 28 28 29 29 28 29
31 35 32 30 34 46 38 38 57 58 57 61 62 65 64 66 65 65 62 61 52 51 51 53 48 45 42 38 36 32 33 37 39 40 35 34 33 33 32 31 30 30 29 28 27 27 25 27 29
19 18 25 29 27 26 28 30 41 49 43 49 60 64 57 58 60 62 62 58 55 50 52 51 50 44 39 38 38 37 37 38 36 32 29 31 29 30 31 30 30 28 27 27 26 24 25 27 26
29 19 22 25 26 30 25 25 21 31 45 46 53 56 60 58 56 57 58 56 53 48 43 49 47 42 37 38 41 44 40 40 36 30 29 27 28 29 30 31 28 25 26 25 24 25 26 25 24
25 23 24 27 29 28 29 32 31 27 37 39 49 49 47 44 53 56 53 52 50 48 44 40 39 40 38 38 39 39 39 38 33 30 27 27 28 28 28 26 23 25 24 23 24 24 24 23 24
19 22 27 24 24 29 33 25 27 23 33 36 35 48 40 45 49 56 51 54 49 44 40 41 33 37 37 38 37 36 34 32 29 27 26 25 26 25 22 21 22 22 23 25 24 21 22 23 23
26 32 28 24 21 23 25 28 27 29 34 34 33 37 46 51 48 50 52 46 44 44 40 39 35 36 38 39 34 31 31 28 25 24 24 24 22 20 20 19 19 20 20 21 19 20 20 22 20
Wind_Direction
218 223 225 223 220 213 208 206 197 212 212 171 218 231 219 222 224 240 260 214 225 278 301 319 315 313 285 281 309 331 331 333 332 346 350 346 352 355 350 350 354 352 350 348 345 343 335 326 325
227 222 224 224 218 209 206 205 197 214 174 232 234 225 229 227 231 238 246 242 237 254 272 296 316 313 307 296 293 310 335 354 348 343 350 350 351 349 349 349 353 350 351 349 346 341 336 328 323
235 225 225 225 218 205 202 208 171 162 208 226 230 234 236 241 243 247 249 257 255 252 265 283 299 310 320 321 313 329 341 347 346 346 346 346 342 344 349 350 352 352 348 347 348 345 342 337 335
238 236 229 228 218 208 196 198 178 187 193 245 254 251 238 239 243 244 243 246 268 249 257 277 290 299 309 323 310 348 348 344 342 350 351 347 343 341 349 351 350 351 350 349 349 349 343 338 334
235 238 237 232 221 208 192 177 160 175 169 224 245 250 244 245 238 247 251 254 260 257 257 269 281 291 306 328 320 349 344 342 342 344 349 349 346 344 349 351 352 351 351 351 352 350 345 336 332
234 235 233 235 226 213 195 174 172 182 243 239 221 228 239 244 242 245 240 247 250 253 255 263 275 279 300 319 312 324 337 340 335 340 345 349 349 349 352 350 352 349 347 349 351 345 345 342 334
237 237 229 228 227 219 200 191 187 191 202 221 188 191 218 245 238 235 246 246 246 251 254 261 272 278 284 301 305 308 319 328 336 341 347 347 350 350 351 349 350 347 344 344 344 342 339 341 339
233 239 238 240 229 220 217 206 199 196 205 212 199 192 215 243 250 232 243 247 249 252 254 256 267 270 278 288 303 305 315 320 332 340 346 347 350 349 349 346 345 345 342 339 338 337 336 338 334
228 234 237 237 237 231 229 221 215 204 220 212 211 200 217 240 242 242 239 238 241 247 248 250 261 269 272 282 295 307 309 316 326 333 341 346 347 347 346 342 343 341 339 335 332 331 336 336 330
241 243 244 232 233 230 228 227 224 220 225 225 215 219 228 241 245 237 244 247 245 250 246 249 258 261 264 271 288 302 308 310 320 324 334 342 344 341 338 339 337 336 333 331 327 327 335 333 329
245 252 250 239 235 238 230 225 224 222 224 231 223 203 221 229 244 244 246 247 256 262 243 228 249 257 268 275 287 298 305 306 313 317 331 337 337 338 334 334 332 333 329 325 325 327 331 329 326
248 252 248 242 238 238 239 234 223 226 229 226 223 209 215 230 234 242 251 263 258 251 240 237 246 271 257 274 290 298 306 303 306 314 325 331 334 331 331 330 329 330 324 319 321 328 328 329 325
245 245 247 247 239 237 240 236 236 238 242 239 233 234 219 228 225 242 240 237 246 245 253 243 242 241 270 288 283 292 301 296 304 308 318 327 329 330 327 324 324 322 320 316 319 326 327 325 322
250 247 247 249 246 243 243 237 237 231 236 239 230 227 228 225 234 230 238 238 243 243 243 238 227 256 282 282 285 293 293 293 295 303 313 319 324 330 323 316 318 316 317 312 319 324 324 323 320
251 250 248 246 251 251 249 242 240 246 238 241 222 224 227 224 232 225 228 240 243 240 234 250 240 270 276 285 286 287 285 291 291 300 305 316 321 327 320 312 314 311 314 311 318 320 319 320 316
253 252 251 246 250 249 253 247 243 247 249 246 239 224 228 230 236 239 239 244 247 243 247 256 249 273 276 279 282 289 290 292 294 299 299 301 317 324 324 314 307 305 310 309 315 315 317 316 313
254 255 254 249 251 253 255 253 241 242 243 245 244 239 238 231 236 241 239 241 245 250 246 250 258 270 277 278 278 281 280 285 291 297 301 303 306 313 320 312 307 304 306 305 310 313 314 312 310
253 251 252 252 246 248 249 248 239 241 244 243 239 241 236 237 233 243 247 241 242 246 250 254 258 263 268 272 270 271 272 280 286 292 295 300 304 311 316 311 308 300 299 303 308 312 311 308 307
258 255 254 250 249 248 249 250 248 242 237 239 240 240 239 234 237 234 242 246 246 247 247 247 252 255 258 263 266 270 273 277 286 288 291 298 303 309 314 307 302 296 293 301 308 310 308 305 308
266 263 260 255 256 254 253 254 251 250 249 245 243 238 241 242 234 239 235 238 248 254 257 253 253 256 258 262 268 272 276 278 280 285 289 292 299 304 307 302 293 288 292 300 305 303 302 303 306
266 265 264 262 259 258 255 251 250 247 250 253 252 251 245 242 240 235 235 240 246 246 249 259 263 264 265 257 263 271 277 277 277 286 286 292 299 299 297 295 284 283 291 298 300 300 299 302 306
267 260 258 258 258 260 257 256 249 247 247 248 250 253 252 252 249 245 239 235 236 244 250 257 257 263 274 274 265 269 272 274 281 282 284 290 295 295 292 287 277 283 290 294 298 295 299 302 303
268 265 266 262 260 260 258 258 250 248 243 245 248 249 249 251 251 248 243 243 242 243 250 255 261 266 267 268 257 256 260 264 270 278 285 288 289 285 286 280 273 282 288 293 293 296 299 300 300
284 273 262 256 259 259 258 261 255 257 253 246 247 246 245 248 250 251 250 239 241 248 251 255 259 260 263 263 272 274 261 260 270 276 279 281 275 280 283 269 276 282 286 290 293 295 297 298 301
274 273 277 261 263 268 267 267 259 254 253 250 245 243 242 243 243 243 247 244 233 240 244 250 254 261 265 266 264 262 264 266 270 273 272 267 272 276 266 270 277 282 285 290 292 293 295 300 302
263 267 262 274 277 283 250 269 265 250 249 244 245 244 240 238 241 245 246 246 248 242 245 250 250 253 259 262 262 255 261 263 266 267 264 268 271 264 267 272 276 280 286 290 290 291 298 300 293
259 272 259 284 264 282 272 270 265 254 253 249 245 242 243 240 236 243 247 249 247 246 244 248 250 251 252 254 253 254 254 259 262 262 262 270 264 265 268 272 278 281 287 287 288 296 299 294 296
269 266 266 272 269 290 282 279 279 241 237 243 241 238 231 231 226 237 243 246 246 243 239 240 240 244 245 246 249 250 251 255 258 260 263 258 263 268 271 274 278 284 285 284 287 295 297 292 294
235 265 239 252 273 282 287 278 264 255 244 241 229 230 222 207 222 236 234 245 247 242 239 240 236 238 242 244 247 247 250 253 255 256 255 260 265 267 268 274 279 281 284 284 287 289 291 293 296
252 245 266 268 273 275 288 279 281 279 266 260 222 206 200 203 224 234 236 229 237 232 230 233 228 231 237 243 245 244 246 248 250 249 253 259 261 262 267 272 277 284 291 281 281 287 289 295 294
Height
5854 5857 5859 5862 5870 5874 5880 5886 5888 5893 5895 5895 5899 5901 5899 5898 5897 5897 5896 5903 5903 5908 5909 5908 5908 5907 5906 5905 5903 5902 5903 5902 5901 5900 5898 5896 5893 5892 5892 5889 5886 5885 5883 5880 5878 5876 5874 5873 5871
5849 5851 5854 5856 5865 5871 5878 5881 5886 5891 5893 5892 5896 5898 5895 5894 5892 5895 5899 5897 5900 5905 5908 5907 5907 5905 5905 5903 5902 5901 5901 5900 5899 5897 5895 5893 5890 5888 5888 5885 5883 5882 5880 5879 5876 5873 5872 5870 5868
5843 5846 5850 5852 5859 5870 5875 5878 5877 5881 5883 5887 5890 5892 5894 5891 5888 5893 5898 5898 5899 5902 5905 5905 5904 5903 5902 5901 5900 5899 5899 5897 5896 5894 5892 5890 5888 5886 5883 5881 5880 5878 5877 5875 5872 5870 5868 5866 5864
5838 5841 5844 5848 5857 5866 5871 5869 5868 5872 5875 5886 5887 5889 5888 5884 5885 5889 5894 5895 5896 5900 5902 5902 5902 5901 5901 5900 5899 5897 5897 5895 5894 5892 5890 5888 5885 5883 5880 5879 5878 5876 5874 5872 5868 5866 5864 5861 5860
5831 5835 5838 5843 5853 5861 5867 5867 5867 5869 5867 5878 5881 5883 5882 5879 5885 5887 5891 5892 5893 5897 5898 5899 5899 5899 5898 5897 5896 5896 5895 5893 5891 5890 5887 5885 5882 5880 5878 5876 5875 5873 5871 5869 5866 5863 5861 5859 5857
5827 5827 5833 5839 5847 5854 5858 5859 5860 5863 5863 5871 5871 5877 5879 5877 5881 5884 5889 5890 5891 5893 5894 5895 5895 5895 5895 5894 5894 5892 5891 5890 5889 5887 5884 5882 5879 5877 5875 5873 5871 5869 5868 5865 5863 5861 5859 5856 5854
5821 5821 5827 5831 5839 5845 5853 5853 5852 5856 5859 5865 5867 5869 5873 5873 5876 5882 5881 5884 5887 5889 5891 5891 5891 5892 5892 5891 5891 5890 5889 5888 5886 5884 5881 5879 5876 5874 5872 5870 5869 5867 5865 5863 5861 5859 5857 5853 5852
5815 5814 5820 5823 5831 5840 5848 5846 5847 5846 5849 5855 5863 5866 5868 5869 5870 5876 5879 5879 5881 5883 5885 5886 5887 5888 5888 5888 5887 5887 5886 5885 5883 5881 5879 5876 5874 5872 5869 5868 5866 5863 5862 5860 5857 5856 5854 5850 5848
5805 5806 5812 5820 5825 5836 5837 5839 5843 5843 5843 5850 5854 5860 5863 5858 5862 5866 5870 5872 5875 5876 5878 5881 5882 5883 5883 5884 5884 5883 5883 5882 5881 5878 5877 5875 5872 5870 5868 5866 5863 5861 5859 5857 5854 5852 5849 5845 5844
5794 5799 5806 5819 5819 5822 5826 5831 5840 5838 5839 5843 5851 5859 5856 5860 5851 5863 5862 5863 5870 5873 5872 5876 5876 5876 5878 5880 5880 5879 5879 5879 5878 5876 5874 5872 5870 5868 5866 5864 5861 5859 5856 5854 5851 5848 5845 5842 5839
5788 5790 5800 5807 5810 5812 5814 5818 5825 5825 5827 5833 5846 5849 5846 5852 5848 5851 5858 5859 5857 5866 5868 5871 5868 5870 5873 5877 5876 5876 5876 5875 5875 5873 5871 5869 5867 5865 5863 5860 5858 5856 5852 5850 5847 5844 5841 5838 5835
5779 5784 5788 5795 5797 5800 5805 5811 5812 5816 5819 5823 5835 5840 5838 5838 5846 5848 5852 5854 5845 5843 5850 5858 5864 5866 5867 5871 5872 5871 5870 5870 5871 5869 5867 5866 5864 5862 5859 5856 5854 5851 5848 5845 5842 5839 5836 5833 5830
5772 5777 5775 5781 5784 5788 5793 5796 5804 5808 5814 5817 5825 5832 5833 5832 5835 5840 5842 5839 5837 5838 5838 5843 5851 5860 5861 5862 5867 5867 5866 5867 5866 5864 5862 5861 5861 5858 5854 5852 5850 5848 5844 5840 5837 5835 5831 5828 5826
5764 5766 5769 5771 5775 5777 5779 5783 5787 5798 5804 5809 5817 5819 5824 5823 5828 5834 5832 5833 5832 5833 5834 5841 5837 5853 5856 5855 5860 5860 5861 5863 5862 5860 5858 5857 5857 5854 5850 5847 5844 5843 5840 5836 5832 5829 5826 5824 5821
5754 5755 5759 5765 5768 5770 5768 5769 5778 5793 5795 5793 5807 5811 5812 5811 5817 5823 5827 5828 5830 5829 5826 5833 5833 5839 5848 5849 5849 5852 5855 5856 5857 5855 5853 5852 5851 5850 5846 5842 5839 5836 5833 5831 5827 5823 5821 5818 5815
5742 5744 5747 5759 5757 5762 5755 5757 5777 5782 5782 5782 5791 5801 5804 5804 5807 5814 5819 5822 5822 5822 5821 5824 5823 5832 5839 5843 5840 5839 5841 5843 5847 5846 5846 5846 5846 5844 5840 5836 5833 5829 5826 5824 5821 5818 5814 5812 5810
5730 5734 5735 5745 5746 5744 5741 5747 5765 5768 5768 5770 5776 5783 5791 5796 5796 5799 5807 5813 5815 5812 5815 5818 5820 5822 5825 5835 5836 5837 5837 5839 5839 5835 5834 5835 5838 5839 5834 5831 5826 5823 5819 5817 5814 5812 5809 5806 5803
5719 5721 5724 5730 5732 5725 5724 5730 5747 5752 5753 5756 5763 5767 5775 5781 5785 5788 5793 5802 5805 5807 5812 5815 5818 5818 5822 5827 5830 5833 5833 5834 5832 5832 5830 5827 5827 5828 5825 5823 5820 5816 5814 5810 5807 5805 5802 5800 5796
5705 5708 5709 5716 5711 5711 5710 5719 5733 5736 5738 5738 5746 5752 5758 5765 5774 5779 5781 5785 5791 5796 5801 5807 5809 5812 5815 5818 5821 5825 5826 5826 5826 5824 5823 5821 5819 5820 5818 5816 5813 5810 5807 5804 5801 5798 5796 5793 5790
5693 5694 5698 5699 5697 5698 5704 5704 5717 5722 5727 5732 5734 5736 5742 5749 5759 5767 5772 5775 5777 5781 5784 5792 5795 5798 5804 5811 5813 5815 5816 5817 5817 5816 5816 5816 5814 5813 5811 5809 5806 5803 5800 5798 5795 5792 5790 5787 5784
5680 5683 5683 5682 5681 5684 5686 5687 5701 5711 5715 5718 5723 5725 5730 5734 5742 5751 5758 5763 5766 5768 5771 5774 5781 5785 5792 5798 5803 5806 5805 5807 5807 5807 5805 5808 5807 5806 5804 5801 5799 5796 5793 5791 5788 5786 5783 5781 5779
5667 5666 5665 5665 5665 5666 5669 5671 5683 5698 5702 5702 5706 5709 5718 5723 5730 5736 5743 5749 5754 5758 5763 5767 5771 5775 5782 5786 5794 5796 5796 5795 5797 5795 5793 5799 5799 5797 5796 5793 5792 5789 5786 5784 5782 5779 5777 5775 5772
5657 5652 5652 5652 5652 5649 5656 5652 5675 5679 5684 5688 5691 5695 5700 5708 5714 5720 5728 5737 5743 5746 5751 5755 5761 5765 5771 5777 5782 5785 5784 5787 5790 5786 5783 5788 5788 5788 5787 5785 5784 5782 5779 5777 5775 5772 5770 5768 5765
5638 5636 5637 5637 5638 5631 5646 5641 5654 5660 5670 5676 5673 5676 5686 5695 5702 5707 5714 5724 5730 5736 5740 5744 5749 5754 5759 5767 5771 5773 5775 5776 5778 5777 5778 5779 5778 5778 5779 5777 5775 5774 5772 5770 5769 5767 5764 5761 5758
5627 5625 5624 5625 5626 5622 5634 5630 5634 5646 5648 5650 5651 5660 5670 5679 5684 5691 5698 5706 5719 5724 5730 5734 5740 5744 5748 5753 5760 5763 5765 5766 5766 5768 5770 5769 5769 5770 5770 5769 5768 5767 5765 5764 5762 5760 5758 5754 5751
5625 5621 5621 5617 5617 5614 5618 5619 5623 5629 5628 5624 5631 5640 5652 5662 5670 5680 5690 5699 5707 5717 5721 5727 5732 5738 5742 5745 5750 5753 5756 5758 5758 5761 5759 5760 5762 5762 5762 5761 5761 5760 5758 5757 5755 5753 5751 5749 5747
5618 5618 5617 5611 5611 5609 5613 5617 5617 5615 5612 5614 5618 5626 5637 5649 5654 5665 5676 5686 5695 5705 5714 5717 5724 5731 5736 5738 5741 5744 5746 5748 5750 5752 5752 5754 5755 5755 5755 5755 5754 5753 5751 5750 5748 5745 5744 5742 5739
5611 5613 5611 5607 5605 5602 5606 5606 5602 5603 5601 5601 5606 5611 5624 5637 5644 5652 5663 5672 5682 5691 5701 5709 5715 5722 5727 5729 5732 5734 5735 5738 5742 5744 5747 5747 5748 5748 5748 5748 5747 5746 5744 5743 5741 5740 5737 5735 5734
5606 5602 5601 5600 5602 5599 5598 5598 5596 5595 5594 5589 5594 5601 5613 5624 5632 5643 5651 5661 5672 5681 5690 5698 5705 5711 5716 5720 5723 5725 5727 5731 5736 5738 5739 5741 5741 5741 5741 5741 5740 5738 5738 5736 5734 5733 5731 5730 5729
5597 5597 5596 5595 5596 5594 5593 5589 5591 5588 5586 5583 5587 5593 5600 5611 5618 5629 5636 5641 5657 5669 5680 5688 5695 5700 5706 5710 5714 5717 5721 5726 5729 5731 5732 5734 5734 5735 5735 5734 5733 5732 5731 5729 5728 5728 5727 5724 5723